Epoch,demod_status_bits,ebno,lock_status,signal_level,viterbi_ber
1664348647,C;S;V;F,12.4,0x00c000,-38.9,1.51e-6
1664348648,C;S;V;F,12.4,0x00c000,-39.0,1.66e-6
1664348649,,12.6,0x00c000,-38.5,
1664348650,C;S;V;F,,,,1.36e-6
1664348653,,,0x00c000,-38.4,
1664348654,C;S;V;F,12.6,0x00c000,,4.54e-7
1664348655,C;S;V;F,12.9,0x00c000,-38.5,6.06e-7
1664348656,C;S;V;F,13.2,0x00c000,-38.5,1.51e-7
1664348657,C;S;V;F,13.0,0x00c000,-38.7,3.03e-7
1664348658,C;S;V;F,13.2,0x00c000,-38.2,4.54e-7
1664348659,C;S;V;F,13.2,0x00c000,-38.1,0.00e-0
1664348660,C;S;V;F,13.1,0x00c000,-38.2,0.00e-0
1664348661,C;S;V;F,13.4,0x00c000,-38.0,0.00e-0
1664348662,C;S;V;F,13.3,0x00c000,-38.0,0.00e-0
1664348663,C;S;V;F,13.4,0x00c000,-38.0,0.00e-0
1664348664,C;S;V;F,13.4,0x00c000,-38.0,
1664348665,,13.6,0x00c000,-38.0,0.00e-0
1664348666,C;S;V;F,13.5,0x00c000,-38.0,0.00e-0
1664348667,C;S;V;F,13.7,0x00c000,-38.0,0.00e-0
1664348668,C;S;V;F,,0x00c000,-37.9,0.00e-0
1664348669,C;S;V;F,13.7,0x00c000,,0.00e-0
1664348670,C;S;V;F,13.7,0x00c000,-37.9,0.00e-0
1664348671,C;S;V;F,13.7,0x00c000,-37.8,0.00e-0
1664348672,C;S;V;F,13.8,0x00c000,-37.9,0.00e-0
1664348673,C;S;V;F,13.7,0x00c000,-37.9,0.00e-0
1664348674,C;S;V;F,13.8,0x00c000,-37.8,0.00e-0
1664348675,C;S;V;F,13.7,0x00c000,-37.8,0.00e-0
1664348676,C;S;V;F,14.2,0x00c000,-37.7,
1664348677,,13.8,0x00c000,-37.7,0.00e-0
1664348678,C;S;V;F,14.1,0x00c000,-37.8,0.00e-0
1664348679,C;S;V;F,,0x00c000,-37.8,0.00e-0
1664348680,C;S;V;F,13.8,0x00c000,-37.6,0.00e-0
1664348681,C;S;V;F,14.0,0x00c000,,0.00e-0
1664348682,C;S;V;F,14.1,0x00c000,-37.5,0.00e-0
1664348683,C;S;V;F,14.1,0x00c000,-37.5,0.00e-0
1664348684,C;S;V;F,14.2,0x00c000,-37.6,0.00e-0
1664348685,C;S;V;F,14.3,0x00c000,-37.3,0.00e-0
1664348686,C;S;V;F,14.4,0x00c000,-37.2,0.00e-0
1664348687,C;S;V;F,14.3,0x00c000,-37.2,0.00e-0
1664348690,C;S;V;F,14.5,0x00c000,-37.2,0.00e-0
1664348691,C;S;V;F,14.7,0x00c000,-36.8,0.00e-0
1664348692,C;S;V;F,14.8,0x00c000,-36.9,0.00e-0
1664348693,C;S;V;F,14.9,0x00c000,-36.6,
1664348694,,15.2,0x00c000,-36.6,0.00e-0
1664348695,C;S;V;F,14.9,0x00c000,-36.5,0.00e-0
1664348696,C;S;V;F,15.2,0x00c000,-36.4,0.00e-0
1664348697,C;S;V;F,15.3,0x00c000,-36.1,0.00e-0
1664348698,C;S;V;F,,0x00c000,-36.3,0.00e-0
1664348699,C;S;V;F,15.6,0x00c000,-36.1,0.00e-0
1664348700,C;S;V;F,15.1,0x00c000,,0.00e-0
1664348701,C;S;V;F,15.5,0x00c000,-36.0,0.00e-0
1664348702,C;S;V;F,15.5,0x00c000,-36.1,0.00e-0
1664348703,C;S;V;F,15.6,0x00c000,-35.9,0.00e-0
1664348704,C;S;V;F,15.5,0x00c000,-35.9,0.00e-0
1664348705,C;S;V;F,15.8,0x00c000,-35.9,0.00e-0
1664348706,C;S;V;F,15.8,0x00c000,-35.8,0.00e-0
1664348707,C;S;V;F,15.8,0x00c000,-35.6,0.00e-0
1664348708,,16.1,0x00c000,-35.6,
1664348709,C;S;V;F,15.8,0x00c000,-35.6,0.00e-0
1664348710,C;S;V;F,15.9,0x00c000,-35.7,0.00e-0
1664348711,C;S;V;F,15.9,0x00c000,-35.6,0.00e-0
1664348712,C;S;V;F,,0x00c000,-35.5,0.00e-0
1664348713,C;S;V;F,16.1,0x00c000,,0.00e-0
1664348714,C;S;V;F,15.8,0x00c000,-35.5,0.00e-0
1664348715,C;S;V;F,16.1,0x00c000,-35.6,0.00e-0
1664348716,C;S;V;F,16.2,0x00c000,-35.5,0.00e-0
1664348717,C;S;V;F,16.2,0x00c000,-35.4,0.00e-0
1664348718,C;S;V;F,16.1,0x00c000,-35.4,0.00e-0
1664348719,C;S;V;F,16.3,0x00c000,-35.5,0.00e-0
1664348720,C;S;V;F,16.4,0x00c000,-35.6,0.00e-0
1664348721,C;S;V;F,16.5,0x00c000,-35.4,
1664348722,,16.2,0x00c000,-35.5,0.00e-0
1664348723,C;S;V;F,16.5,0x00c000,-35.3,0.00e-0
1664348724,C;S;V;F,16.4,0x00c000,-35.3,0.00e-0
1664348725,C;S;V;F,,0x00c000,-35.1,0.00e-0
1664348726,C;S;V;F,16.7,0x00c000,,0.00e-0
1664348727,C;S;V;F,16.3,0x00c000,-35.2,0.00e-0
1664348728,C;S;V;F,16.4,0x00c000,-35.4,0.00e-0
1664348729,C;S;V;F,16.6,0x00c000,-35.4,0.00e-0
1664348730,C;S;V;F,16.6,0x00c000,-35.2,0.00e-0
1664348731,C;S;V;F,16.4,0x00c000,-35.2,0.00e-0
1664348732,C;S;V;F,16.6,0x00c000,-35.0,0.00e-0
1664348733,C;S;V;F,16.7,0x00c000,-35.2,0.00e-0
1664348734,C;S;V;F,16.5,0x00c000,-35.1,0.00e-0
1664348735,C;S;V;F,16.7,0x00c000,-35.1,0.00e-0
1664348736,C;S;V;F,16.5,0x00c000,-35.2,
1664348737,,16.5,0x00c000,-35.0,0.00e-0
1664348738,C;S;V;F,16.5,0x00c000,-35.1,0.00e-0
1664348739,C;S;V;F,16.5,0x00c000,-35.1,0.00e-0
1664348740,C;S;V;F,,0x00c000,-35.1,0.00e-0
1664348741,C;S;V;F,16.8,0x00c000,,0.00e-0
1664348742,C;S;V;F,16.9,0x00c000,-34.9,0.00e-0
1664348743,C;S;V;F,16.9,0x00c000,-35.0,0.00e-0
1664348744,C;S;V;F,16.7,0x00c000,-34.9,0.00e-0
1664348745,C;S;V;F,16.9,0x00c000,-34.8,0.00e-0
1664348746,C;S;V;F,16.9,0x00c000,-34.8,0.00e-0
1664348747,C;S;V;F,16.9,0x00c000,-34.8,0.00e-0
1664348748,C;S;V;F,17.0,0x00c000,-34.7,0.00e-0
1664348749,C;S;V;F,16.9,0x00c000,-34.7,0.00e-0
1664348750,C;S;V;F,16.9,0x00c000,-34.8,0.00e-0
1664348752,,16.9,0x00c000,-34.6,
1664348753,C;S;V;F,,0x00c000,,0.00e-0
1664348754,C;S;V;F,17.0,0x00c000,-34.7,0.00e-0
1664348755,C;S;V;F,17.1,0x00c000,-34.7,0.00e-0
1664348756,C;S;V;F,16.8,0x00c000,-34.7,0.00e-0
1664348757,C;S;V;F,17.0,0x00c000,-34.8,0.00e-0
1664348758,,16.8,0x00c000,-34.7,
1664348759,C;S;V;F,16.8,0x00c000,-34.9,0.00e-0
1664348760,C;S;V;F,16.8,0x00c000,-34.9,0.00e-0
1664348761,C;S;V;F,,0x00c000,,0.00e-0
1664348762,C;S;V;F,16.8,0x00c000,-35.0,0.00e-0
1664348763,C;S;V;F,16.8,0x00c000,-35.1,0.00e-0
1664348764,C;S;V;F,16.6,0x00c000,-35.2,0.00e-0
1664348765,C;S;V;F,16.8,0x00c000,-35.2,0.00e-0
1664348766,C;S;V;F,16.3,0x00c000,-35.3,0.00e-0
1664348767,C;S;V;F,16.7,0x00c000,-35.5,0.00e-0
1664348768,C;S;V;F,16.4,0x00c000,-35.5,0.00e-0
1664348769,C;S;V;F,16.3,0x00c000,-35.6,0.00e-0
1664348770,C;S;V;F,16.1,0x00c000,-35.6,
1664348771,,16.1,0x00c000,-35.8,0.00e-0
1664348772,C;S;V;F,16.0,0x00c000,-35.9,0.00e-0
1664348773,C;S;V;F,16.0,0x00c000,-35.9,0.00e-0
1664348774,C;S;V;F,,0x00c000,-36.0,0.00e-0
1664348775,C;S;V;F,15.9,0x00c000,-36.0,0.00e-0
1664348776,C;S;V;F,16.0,0x00c000,,0.00e-0
1664348777,C;S;V;F,16.1,0x00c000,-36.1,0.00e-0
1664348778,C;S;V;F,16.0,0x00c000,-36.2,0.00e-0
1664348779,C;S;V;F,15.9,0x00c000,-36.0,0.00e-0
1664348780,C;S;V;F,16.0,0x00c000,-36.0,0.00e-0
1664348781,C;S;V;F,15.9,0x00c000,-35.8,0.00e-0
1664348782,C;S;V;F,16.2,0x00c000,-36.0,0.00e-0
1664348783,C;S;V;F,16.0,0x00c000,-36.0,0.00e-0
1664348784,,16.0,0x00c000,-35.9,
1664348785,C;S;V;F,16.0,0x00c000,-36.0,0.00e-0
1664348786,C;S;V;F,15.9,0x00c000,-35.9,0.00e-0
1664348787,C;S;V;F,15.9,0x00c000,-35.9,0.00e-0
1664348788,C;S;V;F,,0x00c000,-36.0,0.00e-0
1664348789,C;S;V;F,16.0,0x00c000,-36.2,0.00e-0
1664348790,C;S;V;F,16.0,0x00c000,,0.00e-0
1664348791,C;S;V;F,15.8,0x00c000,-36.2,0.00e-0
1664348792,C;S;V;F,15.9,0x00c000,-36.3,0.00e-0
1664348793,C;S;V;F,15.9,0x00c000,-36.4,0.00e-0
1664348794,C;S;V;F,15.8,0x00c000,-36.2,0.00e-0
1664348795,C;S;V;F,15.9,0x00c000,-36.3,0.00e-0
1664348796,C;S;V;F,15.8,0x00c000,-36.4,0.00e-0
1664348797,C;S;V;F,15.8,0x00c000,-36.4,0.00e-0
1664348798,C;S;V;F,15.7,0x00c000,-36.3,0.00e-0
1664348799,C;S;V;F,15.7,0x00c000,-36.4,
1664348800,,15.7,0x00c000,-36.4,0.00e-0
1664348801,C;S;V;F,15.8,0x00c000,-36.4,0.00e-0
1664348802,C;S;V;F,15.6,0x00c000,-36.4,0.00e-0
1664348803,C;S;V;F,,0x00c000,-36.4,0.00e-0
1664348804,C;S;V;F,15.6,0x00c000,-36.3,0.00e-0
1664348805,C;S;V;F,15.6,0x00c000,,0.00e-0
1664348806,C;S;V;F,15.8,0x00c000,-36.4,0.00e-0
1664348807,C;S;V;F,15.8,0x00c000,-36.3,0.00e-0
1664348808,C;S;V;F,15.7,0x00c000,-36.3,0.00e-0
1664348809,C;S;V;F,15.9,0x00c000,-36.3,0.00e-0
1664348810,C;S;V;F,16.1,0x00c000,-35.9,0.00e-0
1664348811,C;S;V;F,16.2,0x00c000,-35.9,0.00e-0
1664348812,C;S;V;F,16.1,0x00c000,-36.0,0.00e-0
1664348814,C;S;V;F,16.0,0x00c000,-35.9,
1664348815,,16.0,0x00c000,-35.7,0.00e-0
1664348816,C;S;V;F,16.2,0x00c000,-35.8,0.00e-0
1664348817,C;S;V;F,16.3,0x00c000,-35.9,0.00e-0
1664348818,C;S;V;F,16.2,0x00c000,-35.8,0.00e-0
1664348819,C;S;V;F,,0x00c000,-35.6,0.00e-0
1664348820,C;S;V;F,16.4,0x00c000,-35.6,0.00e-0
1664348821,C;S;V;F,16.6,0x00c000,-35.5,0.00e-0
1664348822,C;S;V;F,16.6,0x00c000,,0.00e-0
1664348823,C;S;V;F,16.6,0x00c000,-35.5,0.00e-0
1664348824,C;S;V;F,16.7,0x00c000,-35.2,0.00e-0
1664348825,C;S;V;F,16.7,0x00c000,-35.1,0.00e-0
1664348826,C;S;V;F,16.8,0x00c000,-34.9,0.00e-0
1664348827,C;S;V;F,17.1,0x00c000,-35.2,0.00e-0
1664348828,C;S;V;F,17.0,0x00c000,-35.0,0.00e-0
1664348829,C;S;V;F,17.1,0x00c000,-35.0,0.00e-0
1664348830,C;S;V;F,17.2,0x00c000,-34.8,
1664348831,,17.1,0x00c000,-34.8,0.00e-0
1664348832,C;S;V;F,17.3,0x00c000,-34.7,0.00e-0
1664348833,C;S;V;F,17.3,0x00c000,-34.4,0.00e-0
1664348834,C;S;V;F,17.4,0x00c000,-34.2,0.00e-0
1664348835,C;S;V;F,,0x00c000,-34.3,0.00e-0
1664348836,C;S;V;F,17.6,0x00c000,-34.0,0.00e-0
1664348837,C;S;V;F,17.7,0x00c000,,0.00e-0
1664348838,C;S;V;F,17.7,0x00c000,-33.9,0.00e-0
1664348839,C;S;V;F,17.8,0x00c000,-33.9,0.00e-0
1664348840,C;S;V;F,17.6,0x00c000,-34.0,0.00e-0
1664348841,C;S;V;F,17.6,0x00c000,-34.0,0.00e-0
1664348842,C;S;V;F,17.7,0x00c000,-34.0,0.00e-0
1664348843,C;S;V;F,17.9,0x00c000,-34.0,0.00e-0
1664348844,C;S;V;F,17.7,0x00c000,-33.7,0.00e-0
1664348845,C;S;V;F,17.9,0x00c000,-33.8,0.00e-0
1664348846,C;S;V;F,18.0,0x00c000,-33.4,
1664348847,,17.9,0x00c000,-33.3,0.00e-0
1664348848,C;S;V;F,18.0,0x00c000,-33.4,0.00e-0
1664348849,C;S;V;F,18.2,0x00c000,-33.3,0.00e-0
1664348850,C;S;V;F,,0x00c000,-33.3,0.00e-0
1664348851,C;S;V;F,18.1,0x00c000,-33.2,0.00e-0
1664348852,C;S;V;F,18.2,0x00c000,,0.00e-0
1664348853,C;S;V;F,18.3,0x00c000,-33.3,0.00e-0
1664348854,C;S;V;F,18.2,0x00c000,-33.1,0.00e-0
1664348855,C;S;V;F,18.3,0x00c000,-33.1,0.00e-0
1664348856,C;S;V;F,18.3,0x00c000,-33.1,0.00e-0
1664348857,C;S;V;F,18.4,0x00c000,-33.1,0.00e-0
1664348858,C;S;V;F,18.4,0x00c000,-33.0,0.00e-0
1664348859,C;S;V;F,18.3,0x00c000,-33.1,0.00e-0
1664348860,C;S;V;F,18.1,0x00c000,-33.2,
1664348861,C;S;V;F,18.3,0x00c000,-33.3,0.00e-0
1664348862,,17.9,0x00c000,-33.7,0.00e-0
1664348863,C;S;V;F,17.5,0x00c000,-34.0,0.00e-0
1664348864,C;S;V;F,17.5,0x00c000,-34.0,0.00e-0
1664348865,C;S;V;F,17.7,0x00c000,-34.0,0.00e-0
1664348866,C;S;V;F,,0x00c000,-33.8,0.00e-0
1664348867,C;S;V;F,17.3,0x00c000,,0.00e-0
1664348868,C;S;V;F,17.8,0x00c000,-33.6,0.00e-0
1664348869,C;S;V;F,18.0,0x00c000,-33.5,0.00e-0
1664348870,C;S;V;F,18.1,0x00c000,-33.6,0.00e-0
1664348871,C;S;V;F,17.8,0x00c000,-33.7,0.00e-0
1664348872,C;S;V;F,17.8,0x00c000,-34.0,0.00e-0
1664348873,C;S;V;F,17.8,0x00c000,-34.3,0.00e-0
1664348874,C;S;V;F,17.8,0x00c000,-34.6,0.00e-0
1664348875,C;S;V;F,17.1,0x00c000,-34.6,0.00e-0
1664348878,C;S;V;F,17.2,0x00c000,-34.8,0.00e-0
1664348879,C;S;V;F,17.1,0x00c000,-34.9,0.00e-0
1664348880,C;S;V;F,17.1,0x00c000,-35.2,
1664348881,,16.4,0x00c000,-35.5,0.00e-0
1664348882,C;S;V;F,16.6,0x00c000,-35.7,0.00e-0
1664348883,C;S;V;F,16.3,0x00c000,-35.9,0.00e-0
1664348884,C;S;V;F,,0x00c000,-35.9,0.00e-0
1664348885,C;S;V;F,16.3,0x00c000,,0.00e-0
1664348886,C;S;V;F,16.5,0x00c000,-36.0,0.00e-0
1664348887,C;S;V;F,16.3,0x00c000,-36.0,0.00e-0
1664348888,C;S;V;F,16.1,0x00c000,-36.2,0.00e-0
1664348889,C;S;V;F,16.1,0x00c000,-36.0,0.00e-0
1664348890,C;S;V;F,15.8,0x00c000,-36.4,0.00e-0
1664348891,C;S;V;F,15.6,0x00c000,-36.7,0.00e-0
1664348892,C;S;V;F,15.5,0x00c000,-36.8,0.00e-0
1664348893,,15.7,0x00c000,-36.8,
1664348894,C;S;V;F,15.5,0x00c000,-36.8,0.00e-0
1664348895,C;S;V;F,15.7,0x00c000,-36.8,0.00e-0
1664348896,C;S;V;F,,0x00c000,-36.9,0.00e-0
1664348897,C;S;V;F,15.4,0x00c000,-37.2,0.00e-0
1664348898,C;S;V;F,15.1,0x00c000,,0.00e-0
1664348899,C;S;V;F,14.7,0x00c000,-37.8,0.00e-0
1664348900,C;S;V;F,14.0,0x00c000,-38.5,0.00e-0
1664348901,C;S;V;F,13.3,0x00c000,-39.1,0.00e-0
1664348902,C;S;V;F,12.7,0x00c000,-39.6,1.51e-7
1664348903,C;S;V;F,12.3,0x00c000,-39.9,9.09e-7
1664348904,C;S;V;F,12.2,0x00c000,-40.0,2.26e-6
1664348905,C;S;V;F,12.1,0x00c000,-40.1,2.42e-6
1664348906,C;S;V;F,12.5,0x00c000,-40.2,2.26e-6
1664348907,C;S;V;F,12.7,0x00c000,-39.9,2.11e-6
1664348908,,12.4,0x00c000,-39.8,
1664348909,C;S;V;F,12.7,0x00c000,-39.8,1.05e-6
1664348910,C;S;V;F,12.7,0x00c000,-39.7,1.36e-6
1664348911,C;S;V;F,,0x00c000,-39.7,6.06e-7
1664348912,C;S;V;F,12.7,0x00c000,,6.06e-7
1664348913,C;S;V;F,12.4,0x00c000,-39.9,9.09e-7
1664348914,C;S;V;F,12.1,0x00c000,-40.4,2.87e-6
1664348915,C;S;V;F,11.7,0x00c000,-40.6,4.68e-6
1664348916,C;S;V;F,11.7,0x00c000,-40.7,8.47e-6
1664348917,C;S;V;F,11.6,0x00c000,-40.5,8.31e-6
1664348918,C;S;V;F,12.4,0x00c000,-39.8,4.99e-6
1664348919,C;S;V;F,13.2,0x00c000,-39.1,1.51e-6
1664348920,C;S;V;F,13.9,0x00c000,-38.4,0.00e-0
1664348921,C;S;V;F,14.4,0x00c000,-38.0,0.00e-0
1664348922,C;S;V;F,14.6,0x00c000,-37.9,0.00e-0
1664348923,C;S;V;F,14.6,0x00c000,-37.8,
1664348924,,14.5,0x00c000,-38.1,0.00e-0
1664348925,C;S;V;F,14.1,0x00c000,-38.6,0.00e-0
1664348926,C;S;V;F,,0x00c000,-38.2,0.00e-0
1664348927,C;S;V;F,14.1,0x00c000,-37.9,0.00e-0
1664348928,C;S;V;F,14.8,0x00c000,,0.00e-0
1664348929,C;S;V;F,15.5,0x00c000,-37.1,0.00e-0
1664348930,C;S;V;F,15.5,0x00c000,-36.6,0.00e-0
1664348931,C;S;V;F,15.9,0x00c000,-36.2,0.00e-0
1664348932,C;S;V;F,16.5,0x00c000,-36.0,0.00e-0
1664348933,C;S;V;F,15.7,0x00c000,-36.4,0.00e-0
1664348934,C;S;V;F,15.4,0x00c000,-36.7,0.00e-0
1664348935,C;S;V;F,15.2,0x00c000,-36.9,0.00e-0
1664348936,C;S;V;F,15.0,0x00c000,-37.0,
1664348937,,15.2,0x00c000,-36.8,0.00e-0
1664348938,C;S;V;F,15.4,0x00c000,-36.4,0.00e-0
1664348939,C;S;V;F,,0x00c000,,0.00e-0
1664348941,C;S;V;F,15.9,0x00c000,-35.6,0.00e-0
1664348942,C;S;V;F,16.0,0x00c000,-35.9,0.00e-0
1664348943,C;S;V;F,15.6,0x00c000,-35.9,0.00e-0
1664348944,C;S;V;F,15.5,0x00c000,-36.3,0.00e-0
1664348945,C;S;V;F,15.3,0x00c000,-36.6,0.00e-0
1664348946,C;S;V;F,15.2,0x00c000,-36.6,0.00e-0
1664348947,C;S;V;F,14.9,0x00c000,-37.0,0.00e-0
1664348948,C;S;V;F,14.7,0x00c000,-37.4,
1664348949,,13.9,0x00c000,-37.9,0.00e-0
1664348950,C;S;V;F,13.6,0x00c000,-38.1,0.00e-0
1664348951,C;S;V;F,13.3,0x00c000,-38.4,0.00e-0
1664348952,C;S;V;F,13.3,0x00c000,-38.5,0.00e-0
1664348953,C;S;V;F,,0x00c000,,0.00e-0
1664348956,,12.4,0x00c000,-39.6,
1664348957,C;S;V;F,12.1,0x00c000,-39.4,2.42e-6
1664348958,C;S;V;F,12.3,0x00c000,-39.4,3.32e-6
1664348959,C;S;V;F,12.6,0x00c000,-39.2,2.87e-6
1664348960,C;S;V;F,,0x00c000,-39.0,1.66e-6
1664348961,C;S;V;F,12.5,0x00c000,-38.7,1.21e-6
1664348962,C;S;V;F,12.7,0x00c000,,4.54e-7
1664348963,C;S;V;F,13.1,0x00c000,-38.4,1.51e-7
1664348964,C;S;V;F,13.0,0x00c000,-38.3,1.51e-7
1664348965,C;S;V;F,13.2,0x00c000,-38.2,0.00e-0
1664348966,C;S;V;F,13.3,0x00c000,-38.0,0.00e-0
1664348967,C;S;V;F,13.6,0x00c000,-37.7,0.00e-0
1664348968,C;S;V;F,14.1,0x00c000,-37.2,0.00e-0
1664348969,C;S;V;F,14.3,0x00c000,-37.0,0.00e-0
1664348970,C;S;V;F,14.4,0x00c000,-36.9,0.00e-0
1664348971,C;S;V;F,14.1,0x00c000,-37.3,0.00e-0
1664348972,C;S;V;F,13.5,0x00c000,-37.9,
1664348973,,13.1,0x00c000,-38.6,0.00e-0
1664348974,C;S;V;F,12.2,0x00c000,-39.5,1.51e-7
1664348975,C;S;V;F,11.3,0x00c000,-39.9,2.87e-6
1664348976,C;S;V;F,,0x00c000,-39.7,9.22e-6
1664348977,C;S;V;F,11.2,0x00c000,-39.5,1.60e-5
1664348978,C;S;V;F,12.1,0x00c000,,1.10e-5
1664348979,C;S;V;F,12.1,0x00c000,-39.4,4.53e-6
1664348980,C;S;V;F,11.6,0x00c000,-39.6,4.53e-6
1664348981,C;S;V;F,11.0,0x00c000,-40.1,8.77e-6
1664348982,C;S;V;F,10.2,0x00c000,-40.7,4.10e-5
1664348983,C;S;V;F,10.3,0x00c000,-40.6,6.95e-5
1664348984,C;S;V;F,10.3,0x00c000,-40.8,7.61e-5
1664348985,C;S;V;F,10.6,0x00c000,-40.9,
1664348986,,10.6,0x00c000,-40.6,7.16e-5
1664348987,C;S;V;F,10.6,0x00c000,-40.4,6.31e-5
1664348988,C;S;V;F,10.8,0x00c000,-40.4,5.70e-5
1664348989,C;S;V;F,,0x00c000,-40.2,4.49e-5
1664348990,C;S;V;F,10.9,0x00c000,-40.0,3.30e-5
1664348991,C;S;V;F,11.4,0x00c000,,1.94e-5
1664348992,C;S;V;F,11.5,0x00c000,-40.0,1.49e-5
1664348993,C;S;V;F,11.6,0x00c000,-39.8,9.07e-6
1664348994,C;S;V;F,11.8,0x00c000,-39.6,6.50e-6
1664348995,C;S;V;F,12.0,0x00c000,-39.5,5.29e-6
1664348996,C;S;V;F,12.2,0x00c000,-39.1,3.63e-6
1664348997,C;S;V;F,12.9,0x00c000,-38.7,9.09e-7
1664348998,C;S;V;F,13.2,0x00c000,-38.3,0.00e-0
1664348999,C;S;V;F,13.5,0x00c000,-38.6,0.00e-0
1664349000,C;S;V;F,13.0,0x00c000,-38.8,0.00e-0
1664349001,C;S;V;F,13.4,0x00c000,-38.5,
1664349002,,,,,0.00e-0
1664349003,,14.7,0x00c000,-37.0,
1664349004,C;S;V;F,,0x00c000,-36.7,0.00e-0
1664349005,C;S;V;F,15.0,0x00c000,,0.00e-0
1664349006,C;S;V;F,14.9,0x00c000,-37.0,0.00e-0
1664349007,C;S;V;F,14.9,0x00c000,-37.6,0.00e-0
1664349008,C;S;V;F,14.0,0x00c000,-38.0,
1664349009,,14.6,0x00c000,-37.6,0.00e-0
1664349010,C;S;V;F,15.3,0x00c000,-37.0,0.00e-0
1664349011,C;S;V;F,15.5,0x00c000,-36.5,0.00e-0
1664349012,C;S;V;F,,0x00c000,-36.6,0.00e-0
1664349013,C;S;V;F,15.2,0x00c000,,0.00e-0
1664349014,C;S;V;F,15.2,0x00c000,-37.2,0.00e-0
1664349015,C;S;V;F,14.8,0x00c000,-37.4,0.00e-0
1664349016,C;S;V;F,14.6,0x00c000,-37.6,0.00e-0
1664349017,C;S;V;F,14.3,0x00c000,-37.9,0.00e-0
1664349018,C;S;V;F,14.1,0x00c000,-38.3,0.00e-0
1664349019,C;S;V;F,13.5,0x00c000,-38.8,0.00e-0
1664349020,C;S;V;F,12.8,0x00c000,-39.6,0.00e-0
1664349021,C;S;V;F,12.7,0x00c000,-39.3,6.06e-7
1664349022,C;S;V;F,12.8,0x00c000,-39.0,4.54e-7
1664349023,C;S;V;F,14.1,0x00c000,-38.1,0.00e-0
1664349024,,14.3,0x00c000,-37.9,
1664349025,C;S;V;F,13.7,0x00c000,-38.2,0.00e-0
1664349026,C;S;V;F,13.8,0x00c000,-38.8,0.00e-0
1664349027,C;S;V;F,,0x00c000,-38.3,0.00e-0
1664349028,C;S;V;F,14.1,0x00c000,-37.9,0.00e-0
1664349029,C;S;V;F,14.7,0x00c000,,0.00e-0
1664349030,C;S;V;F,14.7,0x00c000,-37.6,0.00e-0
1664349031,C;S;V;F,14.2,0x00c000,-38.0,0.00e-0
1664349032,C;S;V;F,14.2,0x00c000,-38.0,0.00e-0
1664349033,C;S;V;F,14.6,0x00c000,-37.8,0.00e-0
1664349034,C;S;V;F,15.2,0x00c000,-36.8,0.00e-0
1664349035,C;S;V;F,15.8,0x00c000,-36.3,0.00e-0
1664349036,C;S;V;F,16.1,0x00c000,-36.0,0.00e-0
1664349037,C;S;V;F,16.3,0x00c000,-36.0,0.00e-0
1664349038,C;S;V;F,16.2,0x00c000,-36.2,0.00e-0
1664349039,,16.3,0x00c000,-36.0,
1664349040,C;S;V;F,16.6,0x00c000,-35.5,0.00e-0
1664349041,C;S;V;F,16.9,0x00c000,-35.3,0.00e-0
1664349042,C;S;V;F,17.0,0x00c000,-35.2,0.00e-0
1664349043,C;S;V;F,,0x00c000,-35.2,0.00e-0
1664349044,C;S;V;F,16.8,0x00c000,,0.00e-0
1664349045,C;S;V;F,17.0,0x00c000,-34.9,0.00e-0
1664349046,C;S;V;F,17.2,0x00c000,-34.8,0.00e-0
1664349047,C;S;V;F,17.4,0x00c000,-34.6,0.00e-0
1664349048,C;S;V;F,17.1,0x00c000,-35.3,0.00e-0
1664349049,C;S;V;F,16.5,0x00c000,-35.7,0.00e-0
1664349050,C;S;V;F,16.4,0x00c000,-35.6,0.00e-0
1664349051,,16.7,0x00c000,-35.1,
1664349052,C;S;V;F,17.2,0x00c000,-34.9,0.00e-0
1664349053,C;S;V;F,16.9,0x00c000,-35.3,0.00e-0
1664349054,C;S;V;F,16.8,0x00c000,-36.0,0.00e-0
1664349055,C;S;V;F,16.1,0x00c000,-36.2,0.00e-0
1664349056,C;S;V;F,,0x00c000,-35.9,0.00e-0
1664349057,C;S;V;F,16.2,0x00c000,-35.0,0.00e-0
1664349058,C;S;V;F,17.1,0x00c000,,0.00e-0
1664349059,C;S;V;F,16.8,0x00c000,-34.8,0.00e-0
1664349060,C;S;V;F,16.4,0x00c000,-35.8,0.00e-0
1664349061,C;S;V;F,16.4,0x00c000,-36.3,0.00e-0
1664349062,C;S;V;F,15.7,0x00c000,-36.5,0.00e-0
1664349063,C;S;V;F,16.3,0x00c000,-36.2,0.00e-0
1664349064,C;S;V;F,16.3,0x00c000,-35.7,0.00e-0
1664349066,C;S;V;F,15.3,0x00c000,-37.2,
1664349067,,14.5,0x00c000,-38.0,0.00e-0
1664349068,C;S;V;F,,0x00c000,-37.9,0.00e-0
1664349069,C;S;V;F,14.5,0x00c000,-36.6,0.00e-0
1664349070,C;S;V;F,15.4,0x00c000,-36.1,0.00e-0
1664349071,C;S;V;F,16.1,0x00c000,,0.00e-0
1664349072,C;S;V;F,16.2,0x00c000,-35.9,0.00e-0
1664349073,C;S;V;F,16.0,0x00c000,-36.7,0.00e-0
1664349074,C;S;V;F,15.1,0x00c000,-37.3,0.00e-0
1664349075,C;S;V;F,15.6,0x00c000,-36.9,0.00e-0
1664349076,C;S;V;F,16.2,0x00c000,-36.0,0.00e-0
1664349077,C;S;V;F,16.6,0x00c000,-35.5,0.00e-0
1664349078,C;S;V;F,16.2,0x00c000,-35.9,0.00e-0
1664349079,C;S;V;F,15.3,0x00c000,-36.9,0.00e-0
1664349080,C;S;V;F,15.0,0x00c000,-37.5,0.00e-0
1664349081,C;S;V;F,15.1,0x00c000,-37.4,
1664349082,,15.5,0x00c000,-36.8,0.00e-0
1664349083,C;S;V;F,15.6,0x00c000,-36.9,0.00e-0
1664349084,C;S;V;F,15.3,0x00c000,-37.3,0.00e-0
1664349085,C;S;V;F,,0x00c000,-38.2,0.00e-0
1664349086,C;S;V;F,14.5,0x00c000,-38.2,0.00e-0
1664349087,C;S;V;F,13.8,0x00c000,,0.00e-0
1664349088,C;S;V;F,14.5,0x00c000,-37.6,0.00e-0
1664349089,C;S;V;F,15.9,0x00c000,-35.8,0.00e-0
1664349090,C;S;V;F,16.6,0x00c000,-35.3,0.00e-0
1664349091,C;S;V;F,17.0,0x00c000,-35.5,0.00e-0
1664349092,C;S;V;F,16.1,0x00c000,-36.0,0.00e-0
1664349093,C;S;V;F,15.2,0x00c000,-37.1,0.00e-0
1664349094,C;S;V;F,15.3,0x00c000,-36.6,0.00e-0
1664349095,C;S;V;F,16.3,0x00c000,-35.7,0.00e-0
1664349096,C;S;V;F,17.0,0x00c000,-34.8,0.00e-0
1664349097,,17.1,0x00c000,-35.0,
1664349098,C;S;V;F,15.1,0x00c000,-37.0,0.00e-0
1664349099,C;S;V;F,,0x00c000,-38.4,0.00e-0
1664349100,C;S;V;F,13.9,0x00c000,,0.00e-0
1664349101,C;S;V;F,14.2,0x00c000,-38.2,0.00e-0
1664349102,C;S;V;F,15.3,0x00c000,-37.1,0.00e-0
1664349103,C;S;V;F,16.1,0x00c000,-36.0,0.00e-0
1664349104,C;S;V;F,16.2,0x00c000,-36.2,0.00e-0
1664349105,C;S;V;F,15.8,0x00c000,-36.7,0.00e-0
1664349106,C;S;V;F,14.6,0x00c000,-38.0,0.00e-0
1664349107,C;S;V;F,14.3,0x00c000,-37.9,0.00e-0
1664349108,C;S;V;F,15.1,0x00c000,-36.8,0.00e-0
1664349109,C;S;V;F,16.6,0x00c000,-35.1,0.00e-0
1664349110,,17.4,0x00c000,-34.4,
1664349111,C;S;V;F,17.6,0x00c000,-34.5,0.00e-0
1664349112,C;S;V;F,16.1,0x00c000,-35.7,0.00e-0
1664349113,C;S;V;F,,0x00c000,-37.3,0.00e-0
1664349114,C;S;V;F,15.0,0x00c000,,0.00e-0
1664349115,C;S;V;F,15.4,0x00c000,-37.1,0.00e-0
1664349116,C;S;V;F,16.1,0x00c000,-36.3,0.00e-0
1664349117,C;S;V;F,17.1,0x00c000,-34.8,0.00e-0
1664349118,C;S;V;F,17.6,0x00c000,-34.3,0.00e-0
1664349119,C;S;V;F,17.2,0x00c000,-34.8,0.00e-0
1664349120,C;S;V;F,16.8,0x00c000,-35.7,0.00e-0
1664349121,C;S;V;F,16.3,0x00c000,-36.0,0.00e-0
1664349122,C;S;V;F,16.5,0x00c000,-35.5,0.00e-0
1664349123,C;S;V;F,17.0,0x00c000,-34.6,0.00e-0
1664349124,,17.7,0x00c000,-33.6,
1664349125,C;S;V;F,17.9,0x00c000,-33.4,0.00e-0
1664349126,C;S;V;F,18.0,0x00c000,-33.6,0.00e-0
1664349127,C;S;V;F,,0x00c000,,0.00e-0
1664349129,C;S;V;F,17.0,0x00c000,-34.9,0.00e-0
1664349130,C;S;V;F,17.0,0x00c000,-34.8,0.00e-0
1664349131,C;S;V;F,16.9,0x00c000,-34.4,0.00e-0
1664349132,,17.4,0x00c000,-33.8,
1664349133,C;S;V;F,18.0,0x00c000,-33.5,0.00e-0
1664349134,C;S;V;F,18.1,0x00c000,-33.3,0.00e-0
1664349135,C;S;V;F,18.1,0x00c000,-33.7,0.00e-0
1664349136,C;S;V;F,17.9,0x00c000,-34.0,0.00e-0
1664349137,C;S;V;F,,0x00c000,-34.0,0.00e-0
1664349138,C;S;V;F,17.7,0x00c000,-33.5,0.00e-0
1664349139,C;S;V;F,18.1,0x00c000,,0.00e-0
1664349140,C;S;V;F,18.2,0x00c000,-33.0,0.00e-0
1664349141,C;S;V;F,18.5,0x00c000,-32.4,0.00e-0
1664349142,C;S;V;F,18.8,0x00c000,-32.3,0.00e-0
1664349143,C;S;V;F,18.5,0x00c000,-32.0,0.00e-0
1664349144,C;S;V;F,18.6,0x00c000,-32.4,0.00e-0
1664349145,C;S;V;F,18.4,0x00c000,-32.9,0.00e-0
1664349146,C;S;V;F,18.1,0x00c000,-33.2,0.00e-0
1664349147,,18.0,0x00c000,-33.2,
1664349148,C;S;V;F,18.1,0x00c000,-33.2,0.00e-0
1664349149,C;S;V;F,,0x00c000,-32.7,0.00e-0
1664349150,C;S;V;F,18.5,0x00c000,-32.4,0.00e-0
1664349151,C;S;V;F,18.5,0x00c000,,0.00e-0
1664349152,C;S;V;F,18.8,0x00c000,-32.3,0.00e-0
1664349153,C;S;V;F,18.8,0x00c000,-32.3,0.00e-0
1664349154,C;S;V;F,18.9,0x00c000,-32.8,0.00e-0
1664349155,C;S;V;F,18.5,0x00c000,-33.1,0.00e-0
1664349156,C;S;V;F,18.1,0x00c000,-33.3,0.00e-0
1664349157,C;S;V;F,18.1,0x00c000,-33.4,0.00e-0
1664349158,C;S;V;F,18.2,0x00c000,-33.2,0.00e-0
1664349159,C;S;V;F,18.3,0x00c000,-32.8,0.00e-0
1664349160,C;S;V;F,18.5,0x00c000,-32.4,0.00e-0
1664349161,C;S;V;F,18.6,0x00c000,-32.2,
1664349162,,18.7,0x00c000,-32.4,0.00e-0
1664349163,C;S;V;F,18.7,0x00c000,-32.4,0.00e-0
1664349164,C;S;V;F,18.5,0x00c000,-32.9,0.00e-0
1664349165,C;S;V;F,,0x00c000,-33.4,0.00e-0
1664349166,C;S;V;F,18.4,0x00c000,,0.00e-0
1664349167,C;S;V;F,18.2,0x00c000,-33.4,0.00e-0
1664349168,C;S;V;F,18.1,0x00c000,-33.6,0.00e-0
1664349169,C;S;V;F,18.2,0x00c000,-33.5,0.00e-0
1664349170,C;S;V;F,18.2,0x00c000,-33.3,0.00e-0
1664349171,C;S;V;F,18.1,0x00c000,-33.2,0.00e-0
1664349172,C;S;V;F,17.9,0x00c000,-33.5,0.00e-0
1664349173,C;S;V;F,17.6,0x00c000,-33.6,0.00e-0
1664349174,C;S;V;F,17.7,0x00c000,-34.0,0.00e-0
1664349175,C;S;V;F,17.7,0x00c000,-34.2,0.00e-0
1664349176,C;S;V;F,17.7,0x00c000,-34.0,
1664349177,,17.5,0x00c000,-34.0,0.00e-0
1664349178,C;S;V;F,17.6,0x00c000,-33.6,0.00e-0
1664349179,C;S;V;F,,0x00c000,-33.5,0.00e-0
1664349180,C;S;V;F,17.3,0x00c000,-33.1,0.00e-0
1664349181,C;S;V;F,17.6,0x00c000,,0.00e-0
1664349182,C;S;V;F,17.8,0x00c000,-33.2,0.00e-0
1664349183,C;S;V;F,18.1,0x00c000,-33.3,0.00e-0
1664349184,C;S;V;F,17.7,0x00c000,-33.7,0.00e-0
1664349185,C;S;V;F,17.4,0x00c000,-34.1,0.00e-0
1664349186,C;S;V;F,17.3,0x00c000,-34.5,0.00e-0
1664349187,C;S;V;F,17.2,0x00c000,-34.8,0.00e-0
1664349188,C;S;V;F,17.2,0x00c000,-34.8,0.00e-0